SITRO-AIS 6 (CHIRKIN)

Last updated on Wed Nov 05 2025 00:03:48 GMT+0000 (Coordinated Universal Time)

1 57192U 23091AC 25308.64578068 .00007363 00000+0 32323-3 0 9995 2 57192 97.5406 5.9208 0013445 165.9606 194.2007 15.22164169130083
UTC large
Height (km)
Speed (km/s)
/
Latitude / Longitude
Inclination (degrees)
Orbital Period (minutes)
Azimuth
Elevation
Range (km)
Doppler Factor

Next 0 passes for location: London (51.5072 / 0.1276)

Sorry there are no passes over London.